TimeCST,TemperatureF,Dew PointF,Humidity,Sea Level PressureIn,VisibilityMPH,Wind Direction,Wind SpeedMPH,Gust SpeedMPH,PrecipitationIn,Events,Conditions,WindDirDegrees,DateUTC
12:53 AM,17.1,12.9,84,30.08,10.0,North,9.2,-,N/A,,Clear,360,2012-11-29 06:53:00
1:53 AM,21.9,19.0,89,30.08,9.0,NNE,12.7,-,N/A,,Clear,30,2012-11-29 07:53:00
2:03 AM,21.2,17.6,86,30.04,8.0,NNE,11.5,-,N/A,,Scattered Clouds,30,2012-11-29 08:03:00
2:16 AM,19.4,17.6,93,30.04,7.0,NNE,15.0,21.9,N/A,,Mostly Cloudy,30,2012-11-29 08:16:00
2:37 AM,21.2,17.6,86,30.05,5.0,NNE,17.3,23.0,N/A,,Overcast,30,2012-11-29 08:37:00
2:53 AM,21.0,18.0,88,30.10,4.0,NNE,16.1,-,N/A,,Overcast,30,2012-11-29 08:53:00
3:53 AM,19.9,18.0,92,30.09,3.0,NE,12.7,-,N/A,,Overcast,40,2012-11-29 09:53:00
4:11 AM,19.4,17.6,93,30.05,2.0,NNE,12.7,-,N/A,,Overcast,30,2012-11-29 10:11:00
4:48 AM,19.4,17.6,93,30.05,3.0,NNE,16.1,20.7,N/A,,Overcast,30,2012-11-29 10:48:00
4:53 AM,19.0,16.0,88,30.10,2.5,NE,13.8,20.7,N/A,,Overcast,40,2012-11-29 10:53:00
5:06 AM,19.4,15.8,86,30.05,3.0,NE,11.5,-,N/A,,Overcast,40,2012-11-29 11:06:00
5:53 AM,18.0,15.1,88,30.12,4.0,NE,16.1,21.9,N/A,,Overcast,40,2012-11-29 11:53:00
6:28 AM,17.6,15.8,93,30.05,2.5,NE,12.7,-,N/A,,Overcast,40,2012-11-29 12:28:00
6:37 AM,17.6,15.8,93,30.06,4.0,NNE,15.0,-,N/A,,Overcast,30,2012-11-29 12:37:00
6:48 AM,17.6,15.8,93,30.05,1.8,NNE,15.0,-,N/A,,Overcast,30,2012-11-29 12:48:00
6:49 AM,18.0,15.1,88,30.11,1.8,NNE,15.0,-,N/A,,Overcast,30,2012-11-29 12:49:00
7:10 AM,17.6,15.8,93,30.06,2.0,NE,12.7,-,N/A,,Overcast,40,2012-11-29 13:10:00
7:19 AM,17.6,15.8,93,30.06,1.8,NE,10.4,-,N/A,,Overcast,40,2012-11-29 13:19:00
7:28 AM,17.6,15.8,93,30.06,2.0,NNE,12.7,-,N/A,,Overcast,30,2012-11-29 13:28:00
7:35 AM,17.6,15.8,93,30.06,1.5,NE,11.5,-,N/A,,Overcast,40,2012-11-29 13:35:00
7:53 AM,18.0,16.0,92,30.12,1.5,NE,11.5,-,N/A,,Overcast,40,2012-11-29 13:53:00
8:08 AM,19.4,15.8,86,30.05,1.2,NE,13.8,-,N/A,,Overcast,40,2012-11-29 14:08:00
8:25 AM,19.4,15.8,86,30.06,1.8,NE,11.5,-,N/A,,Overcast,40,2012-11-29 14:25:00
8:43 AM,19.4,15.8,86,30.08,1.2,NE,12.7,-,N/A,,Overcast,40,2012-11-29 14:43:00
8:53 AM,19.0,16.0,88,30.14,1.2,NNE,12.7,-,N/A,,Overcast,30,2012-11-29 14:53:00
9:10 AM,19.4,15.8,86,30.08,1.5,NNE,10.4,-,N/A,,Overcast,20,2012-11-29 15:10:00
9:34 AM,19.4,15.8,86,30.08,2.0,NE,11.5,-,N/A,,Overcast,40,2012-11-29 15:34:00
9:53 AM,19.9,17.1,89,30.14,2.0,NNE,13.8,-,N/A,,Overcast,30,2012-11-29 15:53:00
10:48 AM,21.2,17.6,86,30.07,3.0,North,-9999.0,-,N/A,,Mist,0,2012-11-29 16:48:00
10:53 AM,21.0,18.0,88,30.14,-9999.0,North,-9999.0,-,N/A,,Unknown,0,2012-11-29 16:53:00
11:21 AM,21.2,19.4,93,30.07,2.5,NE,11.5,-,N/A,,Mist,40,2012-11-29 17:21:00
11:30 AM,21.2,19.4,93,30.06,3.0,NE,12.7,-,N/A,,Overcast,40,2012-11-29 17:30:00
11:37 AM,21.2,19.4,93,30.06,2.5,NE,13.8,-,N/A,,Overcast,40,2012-11-29 17:37:00
11:46 AM,21.2,19.4,93,30.06,3.0,NE,11.5,-,N/A,,Overcast,40,2012-11-29 17:46:00
11:53 AM,21.9,19.9,92,30.11,3.0,NE,13.8,-,N/A,,Overcast,40,2012-11-29 17:53:00
12:42 PM,24.8,21.2,86,30.01,4.0,NE,13.8,-,N/A,,Overcast,40,2012-11-29 18:42:00
12:53 PM,25.0,21.0,85,30.07,5.0,NE,12.7,-,N/A,,Overcast,40,2012-11-29 18:53:00
1:53 PM,25.0,21.0,85,30.06,6.0,NNE,13.8,-,N/A,,Overcast,30,2012-11-29 19:53:00
2:23 PM,26.6,21.2,80,30.00,6.0,NE,13.8,-,N/A,,Haze,40,2012-11-29 20:23:00
2:53 PM,26.1,19.9,78,30.05,6.0,NNE,13.8,-,N/A,,Haze,30,2012-11-29 20:53:00
3:53 PM,24.1,19.9,84,30.05,5.0,NE,15.0,-,N/A,,Overcast,40,2012-11-29 21:53:00
4:53 PM,24.1,19.0,81,30.07,6.0,North,10.4,-,N/A,,Haze,10,2012-11-29 22:53:00
5:04 PM,24.8,19.4,80,30.01,7.0,NNE,10.4,-,N/A,,Overcast,20,2012-11-29 23:04:00
5:53 PM,24.1,19.9,84,30.07,7.0,NE,13.8,-,N/A,,Mostly Cloudy,40,2012-11-29 23:53:00
6:53 PM,25.0,19.9,81,30.11,7.0,NNE,9.2,-,N/A,,Overcast,20,2012-11-30 00:53:00
7:53 PM,24.1,19.9,84,30.12,7.0,NNE,10.4,-,N/A,,Overcast,20,2012-11-30 01:53:00
8:53 PM,24.1,19.9,84,30.15,7.0,North,9.2,-,N/A,,Overcast,10,2012-11-30 02:53:00
9:53 PM,21.9,19.0,89,30.14,7.0,North,5.8,-,N/A,,Partly Cloudy,10,2012-11-30 03:53:00
10:53 PM,19.9,17.1,89,30.14,8.0,North,5.8,-,N/A,,Clear,350,2012-11-30 04:53:00
11:53 PM,19.0,16.0,88,30.14,9.0,North,6.9,-,N/A,,Clear,350,2012-11-30 05:53:00